Latest Coastal Weather Observations for Northern Endeavour (near 10.5S 126E)

IDD60701

Issued at 3:45 am CST Friday 31 October 2014 (issued every 10 minutes, with the page automatically refreshed every 10 minutes)

About coastal observations | Map of coastal stations | Coastal observations for NT | Marine services | Other Formats
Station Details ID: 200212 Name: NORTHERN ENDEAVOUR Lat: -10.61 Lon: 125.98 Height: 16.0 m
Data from the previous 72 hours. | See also: Recent months for locations in Northern Territory
Date/Time
CST
Temp

°C
Wind Pressure Rain
since 9am
mm
Weather Cloud Vis
km
Sea
Height
m
Swell
Dir
 
Speed
knots
Gust
knots
hPa Trend Height
m
Period
s
Dir
31/03:40am 27.7 WNW 3 3 1008.2 - - - Cloudy 10 - - - -
31/03:30am 27.7 NW 4 4 1008.2 - - - Cloudy 10 - - - -
31/03:20am 27.8 NW 4 5 1008.2 - - - Cloudy 10 - - - -
31/03:10am 27.8 NNW 3 4 1008.2 - - - Cloudy 10 - - - -
31/03:00am 27.9 NNW 3 4 1008.3 - - - Cloudy 10 - - - -
31/02:50am 27.8 N 3 4 1008.3 - - - Cloudy 10 - - - -
31/02:40am 27.9 N 3 4 1008.3 - - - Cloudy 10 - - - -
31/02:30am 28.0 N 3 4 1008.3 - - - Cloudy 10 - - - -
31/02:20am 28.0 N 4 5 1008.3 - - - Cloudy 10 - - - -
31/02:10am 28.0 N 4 5 1008.3 - - - Cloudy 10 - - - -
31/02:00am 28.1 N 4 4 1008.4 - - - Cloudy 10 - - - -
31/01:50am 28.1 N 3 5 1008.6 - - - Cloudy 10 - - - -
31/01:40am 27.9 N 2 3 1008.8 - - - Cloudy 10 - - - -
31/01:30am 28.0 NNE 1 2 1009.0 - - - Cloudy 10 - - - -
31/01:20am 28.0 SW 1 1 1009.1 - - - Cloudy 10 - - - -
31/01:10am 28.1 E 1 2 1009.1 - - - Cloudy 10 - - - -
31/01:00am 28.1 NNE 1 3 1009.2 - - - Cloudy 10 - - - -
31/12:50am 28.2 ESE 3 3 1009.4 - - - Cloudy 10 - - - -
31/12:40am 28.3 E 3 4 1009.5 - - - Cloudy 9 - - - -
31/12:30am 28.3 NE 3 4 1009.7 - - - Cloudy 10 - - - -
31/12:20am 28.3 ENE 2 4 1009.8 - - - Cloudy 10 - - - -
31/12:10am 28.4 E 5 5 1010.0 - - - Cloudy 10 - - - -
31/12:00am 28.4 ENE 4 4 1010.0 - - - Cloudy 10 - - - -
 
Date/Time
CST
Temp

°C
Wind Pressure Rain
since 9am
mm
Weather Cloud Vis
km
Sea
Height
m
Swell
Dir
 
Speed
knots
Gust
knots
hPa Trend Height
m
Period
s
Dir
30/11:50pm 28.4 ENE 3 4 1010.0 - - - Cloudy 10 - - - -
30/11:40pm 28.5 E 4 5 1010.0 - - - Cloudy 10 - - - -
30/11:30pm 28.6 ESE 4 4 1010.1 - - - Cloudy 10 - - - -
30/11:20pm 28.6 ESE 5 4 1010.3 - - - Cloudy 10 - - - -
30/11:10pm 28.8 ESE 4 6 1010.3 - - - Cloudy 10 - - - -
30/11:00pm 28.7 E 6 8 1010.3 - - - Cloudy 10 - - - -
30/10:50pm 28.7 E 6 6 1010.2 - - - Cloudy 10 - - - -
30/10:40pm 28.7 E 7 8 1010.2 - - - Cloudy 10 - - - -
30/10:30pm 28.8 ESE 6 7 1010.2 - - - Cloudy 10 - - - -
30/10:20pm 28.8 ESE 6 7 1010.1 - - - Cloudy 10 - - - -
30/10:10pm 28.8 ESE 6 7 1010.0 - - - Cloudy 10 - - - -
30/10:00pm 28.7 ESE 5 7 1009.9 - - - Cloudy 10 - - - -
30/09:50pm 28.7 ESE 4 6 1009.8 - - - Cloudy 10 - - - -
30/09:40pm 28.7 ESE 4 6 1009.8 - - - Cloudy 10 - - - -
30/09:30pm 28.8 ESE 5 5 1009.8 - - - Cloudy 10 - - - -
30/09:20pm 28.8 SE 6 7 1009.6 - - - Partly cloudy 10 - - - -
30/09:10pm 28.8 SE 5 6 1009.5 - - - Partly cloudy 10 - - - -
30/09:00pm 28.9 ESE 3 7 1009.5 - - - Partly cloudy 10 - - - -
30/08:50pm 28.8 SE 1 3 1009.4 - - - Partly cloudy 9 - - - -
30/08:40pm 28.8 SE 3 3 1009.3 - - - Partly cloudy 10 - - - -
30/08:30pm 28.8 SE 3 4 1009.1 - - - Partly cloudy 10 - - - -
30/08:20pm 28.8 SE 2 4 1008.9 - - - Partly cloudy 10 - - - -
30/08:10pm 28.8 E 4 4 1008.8 - - - Partly cloudy 10 - - - -
30/08:00pm 28.8 SE 3 5 1008.8 - - - Partly cloudy 10 - - - -
30/07:50pm 28.8 ESE 2 4 1008.7 - - - Partly cloudy 10 - - - -
30/07:40pm 28.8 SE 2 4 1008.7 - - - Partly cloudy 10 - - - -
30/07:30pm 28.8 SE 1 4 1008.5 - - - Partly cloudy 10 - - - -
30/07:20pm 29.0 S 2 2 1008.3 - - - Cloudy 10 - - - -
30/07:10pm 29.2 S 2 4 1008.2 - - - Cloudy 10 - - - -
30/07:00pm 29.2 S 3 4 1008.1 - - - Cloudy 10 - - - -
30/06:50pm 29.2 S 2 3 1007.9 - - - Cloudy 10 - - - -
30/06:40pm 29.1 SSE 2 4 1007.9 - - - Cloudy 10 - - - -
30/06:30pm 29.4 S 4 5 1007.8 - - - Partly cloudy 10 - - - -
30/06:20pm 30.1 S 5 5 1007.7 - - - Partly cloudy 10 - - - -
30/06:10pm 30.2 SSW 4 6 1007.7 - - - Partly cloudy 10 - - - -
30/06:00pm 29.9 S 2 4 1007.7 - - - Partly cloudy 10 - - - -
30/05:50pm 29.5 S 4 4 1007.6 - - - Cloudy 10 - - - -
30/05:40pm 30.0 S 3 5 1007.5 - - - Cloudy 10 - - - -
30/05:30pm 29.8 SSE 4 6 1007.5 - - - Partly cloudy 10 - - - -
30/05:20pm 30.3 SSW 5 6 1007.4 - - - Partly cloudy 10 - - - -
30/05:10pm 31.0 SW 5 6 1007.3 - - - Partly cloudy 10 - - - -
30/05:00pm 31.2 SW 6 9 1007.3 - - - Partly cloudy 10 - - - -
30/04:50pm 31.0 SW 4 5 1007.3 - - - Cloudy 10 - - - -
30/04:40pm 30.9 SW 5 6 1007.3 - - - Partly cloudy 10 - - - -
30/04:30pm 31.7 SW 5 7 1007.5 - - - Partly cloudy 10 - - - -
30/04:20pm 31.1 SW 4 5 1007.7 - - - Partly cloudy 10 - - - -
30/04:10pm 30.8 SW 4 5 1007.9 - - - Partly cloudy 10 - - - -
30/04:00pm 31.3 W 2 3 1008.0 - - - Partly cloudy 10 - - - -
30/03:50pm 31.5 SW 3 3 1008.2 - - - Cloudy 10 - - - -
30/03:40pm 31.3 WSW 3 4 1008.2 - - - Cloudy 10 - - - -
30/03:30pm 30.9 W 3 5 1008.2 - - - Cloudy 10 - - - -
30/03:20pm 31.2 WSW 4 4 1008.4 - - - Cloudy 10 - - - -
30/03:10pm 30.1 WSW 3 5 1008.5 - - - Cloudy 10 - - - -
30/03:00pm 29.7 WSW 4 4 1008.6 - - - Cloudy 10 - - - -
30/02:50pm 29.0 WSW 3 4 1008.7 - - - Cloudy 10 - - - -
30/02:40pm 28.5 WSW 4 4 1008.8 - - - Cloudy 10 - - - -
30/02:30pm 28.6 WSW 4 4 1008.9 - - - Cloudy 10 - - - -
30/02:20pm 28.8 W 3 4 1009.0 - - - Cloudy 10 - - - -
30/02:10pm 28.5 WSW 4 4 1009.2 - - - Cloudy 10 - - - -
30/02:00pm 29.0 WSW 2 2 1009.4 - - - Cloudy 10 - - - -
30/01:50pm 28.4 W 3 4 1009.5 - - - Cloudy 10 - - - -
30/01:40pm 28.5 W 3 1 1009.7 - - - Cloudy 10 - - - -
30/01:30pm 28.4 WSW 4 5 1009.8 - - - Cloudy 10 - - - -
30/01:20pm 28.7 WSW 2 4 1009.9 - - - Partly cloudy 10 - - - -
30/01:10pm 28.6 W 3 2 1010.2 - - - Partly cloudy 10 - - - -
30/01:00pm 28.3 WNW 3 4 1010.4 - - - Partly cloudy 10 - - - -
30/12:50pm 28.3 NW 3 3 1010.6 - - - Partly cloudy 10 - - - -
30/12:40pm 28.4 NW 3 3 1010.8 - - - Partly cloudy 10 - - - -
30/12:30pm 28.2 NW 2 3 1010.9 - - - Partly cloudy 10 - - - -
30/12:20pm 28.1 NW 3 3 1011.0 - - - Partly cloudy 10 - - - -
30/12:10pm 28.1 NW 2 3 1011.1 - - - Partly cloudy 10 - - - -
30/12:00pm 28.2 NW 2 3 1011.2 - - - Partly cloudy 10 - - - -
30/11:50am 28.3 NW 2 3 1011.3 - - - Partly cloudy 10 - - - -
30/11:40am 28.9 W 1 2 1011.4 - - - Partly cloudy 10 - - - -
30/11:30am 30.2 WSW 1 2 1011.4 - - - Partly cloudy 10 - - - -
30/11:20am 30.3 SW 1 2 1011.5 - - - Partly cloudy 10 - - - -
30/11:10am 30.4 SW 2 2 1011.7 - - - Partly cloudy 10 - - - -
30/11:00am 29.2 W 1 1 1011.7 - - - Partly cloudy 10 - - - -
30/10:50am 29.1 S 1 2 1011.8 - - - Cloudy 10 - - - -
30/10:40am 29.6 NW 1 2 1011.8 - - - Cloudy 10 - - - -
30/10:30am 29.9 ENE 1 2 1011.9 - - - Cloudy 8 - - - -
30/10:20am 30.0 ENE 1 3 1012.0 - - - Cloudy 10 - - - -
30/10:10am 29.9 ENE 2 3 1012.1 - - - Cloudy 10 - - - -
30/10:00am 29.4 S 1 3 1012.1 - - - Cloudy 10 - - - -
30/09:50am 29.3 NNW 1 2 1012.1 - - - Cloudy 10 - - - -
30/09:40am 30.6 NNW 1 1 1012.1 - - - Cloudy 10 - - - -
30/09:30am 30.5 SSW 3 3 1012.0 - - - Cloudy 10 - - - -
30/09:20am 30.5 SW 2 3 1011.9 - - - Cloudy 10 - - - -
30/09:10am 29.8 SW 1 3 1011.8 - - - Cloudy 10 - - - -
30/09:00am 30.2 WSW 2 2 1011.7 - - - Partly cloudy 10 - - - -
30/08:50am 30.2 W 2 3 1011.7 - - - Partly cloudy 10 - - - -
30/08:40am 30.6 W 2 3 1011.7 - - - Partly cloudy 10 - - - -
30/08:30am 30.5 W 2 2 1011.6 - - - Partly cloudy 10 - - - -
30/08:20am 29.3 NW 3 3 1011.5 - - - Cloudy 10 - - - -
30/08:10am 28.3 NW 3 3 1011.4 - - - Cloudy 10 - - - -
30/08:00am 29.9 WNW 3 4 1011.3 - - - Cloudy 10 - - - -
30/07:50am 29.5 WNW 2 4 1011.1 - - - Cloudy 10 - - - -
30/07:40am 28.8 NW 2 3 1011.0 - - - Cloudy 10 - - - -
30/07:30am 29.3 W 2 3 1010.9 - - - Cloudy 10 - - - -
30/07:20am 28.9 WNW 2 2 1010.8 - - - Partly cloudy 10 - - - -
30/07:10am 28.5 NNW 3 3 1010.8 - - - Partly cloudy 10 - - - -
30/07:00am 28.0 NNW 3 4 1010.6 - - - Partly cloudy 10 - - - -
30/06:50am 27.6 NNW 3 4 1010.5 - - - Partly cloudy 10 - - - -
30/06:40am 27.6 NNW 3 4 1010.4 - - - Partly cloudy 10 - - - -
30/06:30am 27.6 NNW 4 4 1010.2 - - - Partly cloudy 10 - - - -
30/06:20am 27.6 NW 3 4 1010.1 - - - Partly cloudy 10 - - - -
30/06:10am 27.5 W 3 2 1010.0 - - - Partly cloudy 10 - - - -
30/06:00am 27.6 W 3 4 1009.8 - - - Partly cloudy 10 - - - -
30/05:50am 27.6 NW 3 3 1009.7 - - - Cloudy 10 - - - -
30/05:40am 27.6 NW 4 4 1009.7 - - - Cloudy 10 - - - -
30/05:30am 27.6 W 4 4 1009.7 - - - Cloudy 10 - - - -
30/05:20am 27.7 WNW 3 4 1009.6 - - - Cloudy 10 - - - -
30/05:10am 27.7 WNW 4 6 1009.5 - - - Cloudy 10 - - - -
30/05:00am 27.7 WNW 5 6 1009.4 - - - Cloudy 10 - - - -
30/04:50am 27.6 W 4 5 1009.3 - - - Cloudy 10 - - - -
30/04:40am 27.6 W 5 6 1009.2 - - - Cloudy 0 - - - -
30/04:30am 27.6 W 4 5 1009.2 - - - Cloudy 10 - - - -
30/04:20am 27.6 W 5 6 1009.0 - - - Cloudy 10 - - - -
30/04:10am 27.6 W 4 6 1009.0 - - - Cloudy 10 - - - -
30/04:00am 27.6 WSW 4 4 1009.0 - - - Cloudy 10 - - - -
30/03:50am 27.6 WSW 3 4 1008.9 - - - Cloudy 10 - - - -
30/03:40am 27.7 WSW 3 4 1008.9 - - - Cloudy 10 - - - -
30/03:30am 27.7 W 4 4 1008.7 - - - Cloudy 10 - - - -
30/03:20am 27.6 W 4 5 1008.7 - - - Cloudy 10 - - - -
30/03:10am 27.7 W 4 5 1008.8 - - - Cloudy 10 - - - -
30/03:00am 27.7 WNW 4 5 1008.8 - - - Cloudy 10 - - - -
30/02:50am 27.8 WNW 5 5 1008.9 - - - Cloudy 10 - - - -
30/02:40am 27.8 NW 4 5 1009.0 - - - Cloudy 10 - - - -
30/02:30am 27.8 WNW 5 5 1009.1 - - - Cloudy 10 - - - -
30/02:20am 27.8 WNW 4 4 1009.2 - - - Cloudy 10 - - - -
30/02:10am 27.9 WNW 4 4 1009.4 - - - Cloudy 10 - - - -
30/02:00am 27.9 NW 3 4 1009.4 - - - Cloudy 10 - - - -
30/01:50am 27.9 NW 5 6 1009.6 - - - Cloudy 10 - - - -
30/01:40am 27.9 NW 4 5 1009.6 - - - Cloudy 10 - - - -
30/01:30am 28.0 NW 4 5 1009.8 - - - Cloudy 10 - - - -
30/01:20am 28.0 NW 4 5 1009.8 - - - Cloudy 10 - - - -
30/01:10am 28.0 NW 4 4 1009.8 - - - Cloudy 10 - - - -
30/01:00am 28.0 NW 4 5 1009.8 - - - Cloudy 10 - - - -
30/12:50am 28.1 NW 3 4 1010.1 - - - Cloudy 10 - - - -
30/12:40am 28.1 WNW 2 2 1010.3 - - - Cloudy 10 - - - -
30/12:30am 28.1 NW 2 2 1010.4 - - - Cloudy 10 - - - -
30/12:20am 28.1 WNW 1 2 1010.5 - - - Cloudy 10 - - - -
30/12:10am 28.0 S 1 1 1010.8 - - - Cloudy 10 - - - -
30/12:00am 28.1 S 1 1 1011.0 - - - Cloudy 10 - - - -
 
Date/Time
CST
Temp

°C
Wind Pressure Rain
since 9am
mm
Weather Cloud Vis
km
Sea
Height
m
Swell
Dir
 
Speed
knots
Gust
knots
hPa Trend Height
m
Period
s
Dir
29/11:50pm 28.1 SSE 2 3 1011.1 - - - Cloudy 10 - - - -
29/11:40pm 28.2 SSE 2 2 1011.2 - - - Cloudy 10 - - - -
29/11:30pm 28.2 SSE 2 2 1011.3 - - - Cloudy 10 - - - -
29/11:20pm 28.3 SE 3 3 1011.3 - - - Cloudy 10 - - - -
29/11:10pm 28.4 SSE 4 5 1011.4 - - - Cloudy 10 - - - -
29/11:00pm 28.3 SE 3 4 1011.4 - - - Cloudy 10 - - - -
29/10:50pm 28.4 SE 3 4 1011.4 - - - Cloudy 10 - - - -
29/10:40pm 28.4 ESE 3 4 1011.4 - - - Cloudy 10 - - - -
29/10:30pm 28.4 ESE 4 4 1011.4 - - - Cloudy 10 - - - -
29/10:20pm 28.5 ESE 3 5 1011.4 - - - Cloudy 10 - - - -
29/10:10pm 28.5 ESE 3 4 1011.4 - - - Cloudy 10 - - - -
29/10:00pm 28.5 ESE 5 5 1011.4 - - - Cloudy 10 - - - -
29/09:50pm 28.5 ESE 4 6 1011.3 - - - Cloudy 10 - - - -
29/09:40pm 28.5 ESE 5 5 1011.2 - - - Cloudy 10 - - - -
29/09:30pm 28.5 SE 5 6 1011.2 - - - Cloudy 10 - - - -
29/09:20pm 28.6 SE 5 7 1011.2 - - - Cloudy 10 - - - -
29/09:10pm 28.6 SE 5 7 1011.2 - - - Cloudy 10 - - - -
29/09:00pm 28.6 SE 6 7 1011.1 - - - Cloudy 10 - - - -
29/08:50pm 28.7 SE 6 6 1011.0 - - - Cloudy 10 - - - -
29/08:40pm 28.7 SE 7 7 1011.0 - - - Cloudy 10 - - - -
29/08:30pm 28.7 SE 6 7 1011.0 - - - Partly cloudy 10 - - - -
29/08:20pm 28.7 SE 6 6 1011.0 - - - Partly cloudy 10 - - - -
29/08:10pm 28.8 SSE 6 8 1010.9 - - - Partly cloudy 10 - - - -
29/08:00pm 28.8 SSE 6 9 1010.9 - - - Partly cloudy 10 - - - -
29/07:50pm 28.8 SSE 7 6 1010.9 - - - Partly cloudy 10 - - - -
29/07:40pm 28.9 SSE 7 8 1010.8 - - - Partly cloudy 10 - - - -
29/07:30pm 28.8 SSE 6 7 1010.6 - - - Partly cloudy 10 - - - -
29/07:20pm 28.8 SSE 6 10 1010.6 - - - Partly cloudy 10 - - - -
29/07:10pm 28.7 S 5 7 1010.5 - - - Partly cloudy 10 - - - -
29/07:00pm 29.2 S 8 7 1010.4 - - - Partly cloudy 10 - - - -
29/06:50pm 29.4 S 8 9 1010.3 - - - Cloudy 10 - - - -
29/06:40pm 29.2 S 7 8 1010.2 - - - Cloudy 10 - - - -
29/06:30pm 28.9 S 7 10 1010.0 - - - Cloudy 10 - - - -
29/06:20pm 29.0 S 7 8 1009.9 - - - Cloudy 10 - - - -
29/06:10pm 30.0 SSW 8 8 1009.8 - - - Cloudy 10 - - - -
29/06:00pm 30.0 SSW 8 8 1009.8 - - - Cloudy 10 - - - -
29/05:50pm 29.4 SSW 8 9 1009.9 - - - Cloudy 10 - - - -
29/05:40pm 29.3 SSW 7 9 1009.7 - - - Cloudy 10 - - - -
29/05:30pm 29.4 SSW 8 9 1009.7 - - - Cloudy 10 - - - -
29/05:20pm 29.0 S 7 9 1009.7 - - - Cloudy 10 - - - -
29/05:10pm 28.9 S 6 7 1009.8 - - - Cloudy 10 - - - -
29/05:00pm 29.2 S 6 9 1009.8 - - - Cloudy 10 - - - -
29/04:50pm 28.8 SSE 8 7 1009.9 - - - Partly cloudy 10 - - - -
29/04:40pm 28.8 SSE 7 9 1010.0 - - - Partly cloudy 10 - - - -
29/04:30pm 28.6 SSE 6 9 1010.1 - - - Partly cloudy 10 - - - -
29/04:20pm 28.8 S 7 7 1010.1 - - - Partly cloudy 10 - - - -
29/04:10pm 29.2 SSW 6 8 1009.9 - - - Partly cloudy 10 - - - -
29/04:00pm 29.3 SSW 5 6 1009.9 - - - Partly cloudy 10 - - - -
29/03:50pm 28.8 S 7 7 1010.0 - - - Partly cloudy 10 - - - -
29/03:40pm 28.7 S 6 8 1010.2 - - - Partly cloudy 10 - - - -
29/03:30pm 28.7 S 6 7 1010.2 - - - Partly cloudy 10 - - - -
29/03:20pm 29.4 SSW 6 7 1010.0 - - - Partly cloudy 10 - - - -
29/03:10pm 29.5 SW 6 7 1010.0 - - - Partly cloudy 10 - - - -
29/03:00pm 29.3 SW 6 8 1009.9 - - - Partly cloudy 10 - - - -
29/02:50pm 31.9 WSW 7 12 1009.7 - - - Partly cloudy 10 - - - -
29/02:40pm 31.7 WSW 6 9 1009.9 - - - Partly cloudy 10 - - - -
29/02:30pm 30.8 W 6 11 1010.0 - - - Partly cloudy 10 - - - -
29/02:20pm 31.0 WSW 5 6 1010.1 - - - Partly cloudy 10 - - - -
29/02:10pm 31.0 WSW 5 6 1010.4 - - - Partly cloudy 10 - - - -
29/02:00pm 30.5 WSW 5 6 1010.7 - - - Partly cloudy 10 - - - -
29/01:50pm 31.0 SW 4 8 1010.8 - - - Cloudy 10 - - - -
29/01:40pm 31.7 SSW 5 5 1011.0 - - - Cloudy 10 - - - -
29/01:30pm 30.5 WSW 5 7 1011.2 - - - Partly cloudy 10 - - - -
29/01:20pm 30.3 WSW 6 9 1011.3 - - - Partly cloudy 10 - - - -
29/01:10pm 30.3 SW 5 8 1011.5 - - - Partly cloudy 10 - - - -
29/01:00pm 30.2 SW 4 4 1011.8 - - - Partly cloudy 10 - - - -
29/12:50pm 29.9 SW 6 7 1011.9 - - - Partly cloudy 10 - - - -
29/12:40pm 29.9 SW 5 6 1012.1 - - - Cloudy 10 - - - -
29/12:30pm 29.8 SW 5 8 1012.3 - - - Partly cloudy 10 - - - -
29/12:20pm 30.2 SW 5 6 1012.4 - - - Cloudy 10 - - - -
29/12:10pm 28.4 SW 5 5 1012.5 - - - Cloudy 10 - - - -
29/12:00pm 30.0 SW 5 6 1012.6 - - - Cloudy 10 - - - -
29/11:50am 30.1 SSW 5 6 1012.8 - - - Cloudy 10 - - - -
29/11:40am 28.1 SW 4 6 1012.8 - - - Cloudy 10 - - - -
29/11:30am 30.0 SSW 6 5 1013.0 - - - Cloudy 10 - - - -
29/11:20am 28.9 SSW 5 6 1013.0 - - - Cloudy 10 - - - -
29/11:10am 30.0 SSW 5 6 1013.0 - - - Cloudy 10 - - - -
29/11:00am 30.2 SW 4 6 1013.1 - - - Cloudy 10 - - - -
29/10:50am 29.6 SW 4 6 1013.1 - - - Cloudy 10 - - - -
29/10:40am 29.4 SW 4 5 1013.1 - - - Cloudy 10 - - - -
29/10:30am 30.0 SSW 4 4 1013.2 - - - Cloudy 10 - - - -
29/10:20am 29.6 SW 4 5 1013.1 - - - Cloudy 10 - - - -
29/10:10am 29.9 SW 3 4 1013.2 - - - Cloudy 10 - - - -
29/10:00am 30.2 S 3 4 1013.2 - - - Cloudy 10 - - - -
29/09:50am 30.3 SSW 4 5 1013.3 - - - Cloudy 10 - - - -
29/09:40am 29.9 SW 3 4 1013.3 - - - Cloudy 10 - - - -
29/09:30am 30.4 SSW 2 3 1013.4 - - - Cloudy 10 - - - -
29/09:20am 29.5 SSW 3 3 1013.4 - - - Cloudy 10 - - - -
29/09:10am 29.9 SW 4 5 1013.3 - - - Cloudy 8 - - - -
29/09:00am 29.4 SW 2 4 1013.3 - - - Cloudy 10 - - - -
29/08:50am 30.0 SW 2 3 1013.3 - - - Cloudy 10 - - - -
29/08:40am 29.6 SSW 2 3 1013.2 - - - Cloudy 10 - - - -
29/08:30am 29.5 ESE 1 2 1013.2 - - - Cloudy 10 - - - -
29/08:20am 28.4 SSE 1 5 1013.1 - - - Cloudy 10 - - - -
29/08:10am 28.3 S 2 2 1012.9 - - - Cloudy 10 - - - -
29/08:00am 28.4 E 2 3 1012.8 - - - Cloudy 10 - - - -
29/07:50am 28.3 E 2 3 1012.7 - - - Cloudy 10 - - - -
29/07:40am 28.5 SE 2 2 1012.6 - - - Cloudy 10 - - - -
29/07:30am 28.0 ESE 2 3 1012.5 - - - Cloudy 10 - - - -
29/07:20am 27.9 E 2 5 1012.4 - - - Cloudy 10 - - - -
29/07:10am 28.0 ENE 2 2 1012.3 - - - Cloudy 10 - - - -
29/07:00am 27.4 NNE 3 4 1012.2 - - - Cloudy 10 - - - -
29/06:50am 27.2 N 4 4 1011.9 - - - Cloudy 10 - - - -
29/06:40am 27.1 N 5 5 1011.7 - - - Cloudy 10 - - - -
29/06:30am 27.3 NNW 5 6 1011.5 - - - Cloudy 10 - - - -
29/06:20am 27.1 N 5 6 1011.4 - - - Cloudy 10 - - - -
29/06:10am 27.0 N 6 6 1011.2 - - - Cloudy 10 - - - -
29/06:00am 27.1 N 5 6 1011.2 - - - Cloudy 10 - - - -
29/05:50am 27.2 - 4 5 1011.1 - - - Cloudy 10 - - - -
29/05:40am 27.2 N 4 5 1011.0 - - - Cloudy 10 - - - -
29/05:30am 27.1 N 5 4 1010.9 - - - Cloudy 10 - - - -
29/05:20am 27.2 N 4 4 1010.9 - - - Cloudy 10 - - - -
29/05:10am 27.2 N 5 6 1010.5 - - - Cloudy 10 - - - -
29/05:00am 27.2 N 5 4 1010.4 - - - Cloudy 10 - - - -
29/04:50am 27.4 N 6 7 1010.2 - - - Cloudy 10 - - - -
29/04:40am 27.5 NNW 6 8 1010.2 - - - Cloudy 10 - - - -
29/04:30am 27.5 N 6 8 1010.0 - - - Cloudy 10 - - - -
29/04:20am 27.5 N 7 8 1010.0 - - - Cloudy 10 - - - -
29/04:10am 27.5 N 6 9 1009.8 - - - Cloudy 10 - - - -
29/04:00am 27.5 NNW 6 6 1009.7 - - - Cloudy 10 - - - -
29/03:50am 27.6 NNW 6 6 1009.8 - - - Cloudy 10 - - - -
29/03:40am 27.7 N 5 6 1009.8 - - - Cloudy 10 - - - -
29/03:30am 27.7 NNW 6 8 1009.8 - - - Cloudy 10 - - - -
29/03:20am 27.7 NNW 4 6 1009.8 - - - Cloudy 10 - - - -
29/03:10am 27.7 N 4 6 1009.9 - - - Cloudy 10 - - - -
29/03:00am 27.7 N 5 5 1009.8 - - - Cloudy 10 - - - -
29/02:50am 27.6 NW 4 5 1009.9 - - - Cloudy 10 - - - -
29/02:40am 27.5 NW 5 5 1009.9 - - - Cloudy 10 - - - -
29/02:30am 27.9 N 4 5 1009.9 - - - Cloudy 10 - - - -
29/02:20am 27.7 NNW 6 8 1010.0 - - - Cloudy 10 - - - -
29/02:10am 27.8 N 5 8 1010.1 - - - Cloudy 10 - - - -
29/02:00am 27.8 NNW 4 6 1010.3 - - - Cloudy 10 - - - -
29/01:50am 27.7 NNW 3 4 1010.3 - - - Cloudy 10 - - - -
29/01:40am 27.8 NNW 4 4 1010.4 - - - Cloudy 10 - - - -
29/01:30am 27.9 N 3 4 1010.4 - - - Cloudy 10 - - - -
29/01:20am 28.0 - 4 4 1010.5 - - - Cloudy 10 - - - -
29/01:10am 28.0 N 4 5 1010.6 - - - Cloudy 10 - - - -
29/01:00am 28.0 N 3 3 1010.7 - - - Cloudy 10 - - - -
29/12:50am 28.0 NNE 3 3 1010.8 - - - Cloudy 10 - - - -
29/12:40am 28.0 N 1 2 1010.9 - - - Cloudy 10 - - - -
29/12:30am 27.9 NNE 1 3 1010.9 - - - Cloudy 10 - - - -
29/12:20am 27.8 SW 1 1 1011.1 - - - Cloudy 10 - - - -
29/12:10am 27.9 SE 2 1 1011.2 - - - Cloudy 10 - - - -
29/12:00am 28.0 ESE 2 2 1011.3 - - - Cloudy 10 - - - -
 
Date/Time
CST
Temp

°C
Wind Pressure Rain
since 9am
mm
Weather Cloud Vis
km
Sea
Height
m
Swell
Dir
 
Speed
knots
Gust
knots
hPa Trend Height
m
Period
s
Dir
28/11:50pm 28.1 E 3 4 1011.3 - - - Cloudy 10 - - - -
28/11:40pm 28.1 E 3 4 1011.4 - - - Cloudy 10 - - - -
28/11:30pm 28.1 ESE 5 5 1011.4 - - - Cloudy 10 - - - -
28/11:20pm 28.0 SE 5 5 1011.4 - - - Cloudy 10 - - - -
28/11:10pm 27.9 SE 5 5 1011.3 - - - Cloudy 10 - - - -
28/11:00pm 27.9 SE 4 4 1011.3 - - - Cloudy 10 - - - -
28/10:50pm 27.9 SE 5 5 1011.2 - - - Cloudy 10 - - - -
28/10:40pm 27.9 SE 5 6 1011.1 - - - Cloudy 10 - - - -
28/10:30pm 28.0 SE 5 6 1011.1 - - - Cloudy 10 - - - -
28/10:20pm 28.0 SE 5 7 1011.2 - - - Cloudy 10 - - - -
28/10:10pm 28.2 SE 5 5 1011.3 - - - Cloudy 10 - - - -
28/10:00pm 28.2 SE 6 7 1011.2 - - - Cloudy 10 - - - -
28/09:50pm 28.2 SE 5 7 1011.2 - - - Cloudy 10 - - - -
28/09:40pm 28.2 SE 5 7 1011.1 - - - Cloudy 10 - - - -
28/09:30pm 28.1 SE 5 5 1011.1 - - - Cloudy 10 - - - -
28/09:20pm 28.2 SE 5 5 1011.1 - - - Cloudy 10 - - - -
28/09:10pm 28.2 SE 5 6 1011.0 - - - Cloudy 10 - - - -
28/09:00pm 28.2 SE 4 6 1010.9 - - - Cloudy 9 - - - -
28/08:50pm 28.2 SE 4 4 1010.9 - - - Cloudy 10 - - - -
28/08:40pm 28.2 SE 5 6 1010.8 - - - Cloudy 10 - - - -
28/08:30pm 28.3 SSE 5 6 1010.7 - - - Cloudy 10 - - - -
28/08:20pm 28.3 ESE 4 6 1010.6 - - - Cloudy 10 - - - -
28/08:10pm 28.3 SE 4 6 1010.5 - - - Cloudy 10 - - - -
28/08:00pm 28.2 ESE 6 7 1010.4 - - - Cloudy 10 - - - -
28/07:50pm 28.1 ESE 5 6 1010.3 - - - Cloudy 10 - - - -
28/07:40pm 28.0 E 5 6 1010.1 - - - Cloudy 10 - - - -
28/07:30pm 28.0 ESE 3 5 1010.1 - - - Cloudy 10 - - - -
28/07:20pm 28.0 ESE 5 5 1010.0 - - - Cloudy 10 - - - -
28/07:10pm 28.0 ESE 5 5 1009.9 - - - Cloudy 10 - - - -
28/07:00pm 28.0 ESE 5 7 1009.8 - - - Cloudy 10 - - - -
28/06:50pm 28.0 E 5 5 1009.8 - - - Cloudy 10 - - - -
28/06:40pm 28.0 E 5 5 1009.6 - - - Partly cloudy 10 - - - -
28/06:30pm 28.1 ESE 6 6 1009.6 - - - Partly cloudy 10 - - - -
28/06:20pm 28.1 E 6 6 1009.5 - - - Partly cloudy 10 - - - -
28/06:10pm 28.2 E 5 7 1009.3 - - - Cloudy 10 - - - -
28/06:00pm 28.1 E 4 6 1009.3 - - - Cloudy 10 - - - -
28/05:50pm 28.2 ESE 5 6 1009.2 - - - Cloudy 10 - - - -
28/05:40pm 28.2 ESE 3 4 1009.1 - - - Cloudy 10 - - - -
28/05:30pm 28.2 E 3 4 1009.1 - - - Cloudy 10 - - - -
28/05:20pm 28.2 E 3 5 1009.0 - - - Cloudy 10 - - - -
28/05:10pm 28.3 SE 3 3 1009.0 - - - Cloudy 10 - - - -
28/05:00pm 28.1 SE 3 4 1009.0 - - - Cloudy 10 - - - -
28/04:50pm 28.1 SE 3 3 1008.9 - - - Cloudy 10 - - - -
28/04:40pm 28.3 ESE 2 3 1008.9 - - - Cloudy 10 - - - -
28/04:30pm 30.6 N 1 2 1008.8 - - - Cloudy 10 - - - -
28/04:20pm 29.5 NNW 2 2 1008.8 - - - Partly cloudy 10 - - - -
28/04:10pm 28.6 ENE 2 4 1008.8 - - - Partly cloudy 10 - - - -
28/04:00pm 28.6 SW 2 1 1008.9 - - - Partly cloudy 10 - - - -
28/03:50pm 30.1 SW 2 4 1009.0 - - - Partly cloudy 10 - - - -
28/03:40pm 30.2 WSW 2 2 1009.0 - - - Partly cloudy 10 - - - -
28/03:30pm 28.4 W 2 3 1009.1 - - - Partly cloudy 10 - - - -
28/03:20pm 28.1 NNW 2 3 1009.1 - - - Partly cloudy 10 - - - -
28/03:10pm 28.0 NNW 3 3 1009.2 - - - Cloudy 10 - - - -
28/03:00pm 27.9 NE 2 4 1009.3 - - - Cloudy 10 - - - -
28/02:50pm 28.5 NE 1 3 1009.5 - - - Cloudy 10 - - - -
28/02:40pm 28.5 NE 1 2 1009.7 - - - Cloudy 10 - - - -
28/02:30pm 27.9 E 1 1 1009.8 - - - Partly cloudy 10 - - - -
28/02:20pm 28.4 NNE 1 1 1010.0 - - - Partly cloudy 10 - - - -
28/02:10pm 27.8 NNW 2 3 1010.0 - - - Partly cloudy 10 - - - -
28/02:00pm 27.8 NNW 2 3 1010.1 - - - Cloudy 10 - - - -
28/01:50pm 27.8 N 2 3 1010.2 - - - Cloudy 10 - - - -
28/01:40pm 27.8 NE 2 2 1010.3 - - - Cloudy 10 - - - -
28/01:30pm 28.0 ENE 3 4 1010.5 - - - Cloudy 10 - - - -
28/01:20pm 28.1 ENE 3 4 1010.8 - - - Partly cloudy 10 - - - -
28/01:10pm 28.3 ENE 4 5 1011.1 - - - Partly cloudy 10 - - - -
28/01:00pm 28.6 E 3 5 1011.2 - - - Partly cloudy 10 - - - -
28/12:50pm 28.2 ENE 3 5 1011.3 - - - Partly cloudy 10 - - - -
28/12:40pm 28.1 ENE 3 5 1011.6 - - - Cloudy 10 - - - -
28/12:30pm 28.9 E 4 3 1011.7 - - - Cloudy 10 - - - -
28/12:20pm 29.6 E 4 6 1011.8 - - - Cloudy 10 - - - -
28/12:10pm 30.4 E 7 7 1011.9 - - - Cloudy 10 - - - -
28/12:00pm 28.7 E 6 7 1011.9 - - - Cloudy 10 - - - -
28/11:50am 29.1 E 6 7 1011.9 - - - Cloudy 10 - - - -
28/11:40am 28.9 E 6 6 1011.9 - - - Cloudy 10 - - - -
28/11:30am 28.4 E 6 7 1011.9 - - - Cloudy 10 - - - -
28/11:20am 29.3 E 7 7 1012.0 - - - Cloudy 10 - - - -
28/11:10am 28.5 E 6 8 1012.0 - - - Partly cloudy 10 - - - -
28/11:00am 28.4 E 5 7 1012.1 - - - Partly cloudy 10 - - - -
28/10:50am 28.7 E 6 9 1012.3 - - - Partly cloudy 10 - - - -
28/10:40am 28.1 ENE 7 9 1012.4 - - - Partly cloudy 10 - - - -
28/10:30am 28.6 E 8 10 1012.6 - - - Partly cloudy 10 - - - -
28/10:20am 28.4 E 8 10 1012.8 - - - Partly cloudy 10 - - - -
28/10:10am 28.1 E 6 9 1012.7 - - - Partly cloudy 10 - - - -
28/10:00am 27.8 ENE 6 8 1012.6 - - - Partly cloudy 10 - - - -
28/09:50am 27.8 ENE 7 8 1012.7 - - - Partly cloudy 10 - - - -
28/09:40am 27.9 ENE 7 7 1012.7 - - - Cloudy 10 - - - -
28/09:30am 27.8 ENE 6 7 1012.7 - - - Cloudy 10 - - - -
28/09:20am 28.0 E 5 7 1012.7 - - - Cloudy 10 - - - -
28/09:10am 28.0 E 5 6 1012.6 - - - Cloudy 10 - - - -
28/09:00am 27.7 ENE 4 6 1012.6 - - - Cloudy 10 - - - -
28/08:50am 27.7 E 5 4 1012.5 - - - Cloudy 10 - - - -
28/08:40am 27.7 E 4 4 1012.5 - - - Cloudy 10 - - - -
28/08:30am 27.7 E 3 4 1012.3 - - - Cloudy 10 - - - -
28/08:20am 27.7 E 4 6 1012.2 - - - Cloudy 10 - - - -
28/08:10am 27.6 ENE 4 6 1012.1 - - - Cloudy 10 - - - -
28/08:00am 27.3 ENE 4 5 1012.0 - - - Partly cloudy 10 - - - -
28/07:50am 27.4 ENE 5 6 1011.9 - - - Partly cloudy 10 - - - -
28/07:40am 27.3 ENE 5 7 1011.9 - - - Partly cloudy 10 - - - -
28/07:30am 27.3 ENE 6 6 1011.9 - - - Partly cloudy 10 - - - -
28/07:20am 27.1 NE 6 7 1011.8 - - - Cloudy 10 - - - -
28/07:10am 27.1 ENE 5 7 1011.8 - - - Cloudy 10 - - - -
28/07:00am 27.0 ENE 6 8 1011.6 - - - Cloudy 10 - - - -
28/06:50am 27.1 ENE 6 7 1011.5 - - - Cloudy 10 - - - -
28/06:40am 27.1 ENE 6 8 1011.3 - - - Cloudy 10 - - - -
28/06:30am 27.1 NE 6 7 1011.2 - - - Cloudy 10 - - - -
28/06:20am 27.1 NE 7 8 1011.0 - - - Cloudy 10 - - - -
28/06:10am 27.0 NE 7 7 1010.9 - - - Cloudy 10 - - - -
28/06:00am 27.2 NE 6 8 1010.9 - - - Cloudy 10 - - - -
28/05:50am 27.3 NE 6 8 1010.8 - - - Cloudy 10 - - - -
28/05:40am 27.2 NE 8 9 1010.6 - - - Cloudy 10 - - - -
28/05:30am 27.0 NE 8 10 1010.5 - - - Cloudy 10 - - - -
28/05:20am 27.1 NNE 8 9 1010.4 - - - Cloudy 10 - - - -
28/05:10am 27.1 NE 7 8 1010.4 - - - Cloudy 10 - - - -
28/05:00am 27.0 NE 7 8 1010.4 - - - Cloudy 10 - - - -
28/04:50am 27.2 NE 8 10 1010.3 - - - Cloudy 10 - - - -
28/04:40am 27.4 NE 9 9 1010.2 - - - Cloudy 10 - - - -
28/04:30am 27.5 NE 8 10 1010.0 - - - Cloudy 10 - - - -
28/04:20am 27.5 NE 9 12 1010.0 - - - Cloudy 10 - - - -
28/04:10am 27.1 NE 10 12 1010.0 - - - Cloudy 10 - - - -
28/04:00am 27.1 NE 10 11 1009.9 - - - Cloudy 10 - - - -
28/03:50am 27.2 NE 11 13 1009.9 - - - Cloudy 10 - - - -

Other Formats:

Comma delimited format used in spreadsheet applications
http://www.bom.gov.au/fwo/IDD60701/IDD60701.95100.axf

JavaScript Object Notation format (JSON) in row-major order
http://www.bom.gov.au/fwo/IDD60701/IDD60701.95100.json